| time (UTC) | temp F | wind direction | speed MPH | gust MPH | rain 1hr in | rain 24hr in | rain mn in | humidity % | barometer mb |
| 20260507012606 | 58 | 265 | 2.0 | 2.0 | 0.00 | 0.00 | 0.00 | 60 | 1016.8 |
| 20260507012102 | 59 | 189 | 1.0 | 2.0 | 0.00 | 0.00 | 0.00 | 60 | 1016.7 |
| 20260507011600 | 59 | 195 | 2.0 | 2.0 | 0.00 | 0.00 | 0.00 | 60 | 1016.9 |
| 20260507011056 | 59 | 247 | 2.0 | 2.0 | 0.00 | 0.00 | 0.00 | 59 | 1016.7 |
| 20260507010550 | 59 | 226 | 1.0 | 2.0 | 0.00 | 0.00 | 0.00 | 59 | 1016.8 |
| 20260507010047 | 59 | 202 | 1.0 | 1.0 | 0.00 | 0.00 | 0.00 | 59 | 1016.7 |
| 20260507005544 | 59 | 190 | 1.0 | 1.0 | 0.00 | 0.00 | 0.00 | 58 | 1016.7 |
| 20260507005040 | 60 | 240 | 1.0 | 2.0 | 0.00 | 0.00 | 0.00 | 58 | 1016.6 |
| 20260507004538 | 60 | 229 | 2.0 | 3.0 | 0.00 | 0.00 | 0.00 | 57 | 1016.6 |
| 20260507004035 | 60 | 157 | 2.0 | 3.0 | 0.00 | 0.00 | 0.00 | 57 | 1016.6 |
| 20260507003530 | 60 | 42 | 2.0 | 3.0 | 0.00 | 0.00 | 0.00 | 56 | 1016.6 |
| 20260507003020 | 60 | 197 | 0.0 | 0.0 | 0.00 | 0.00 | 0.00 | 56 | 1016.4 |
| 20260507002516 | 60 | 49 | 1.0 | 3.0 | 0.00 | 0.00 | 0.00 | 55 | 1016.3 |
| 20260507002012 | 61 | 227 | 1.0 | 1.0 | 0.00 | 0.00 | 0.00 | 55 | 1016.5 |
| 20260507001509 | 61 | 92 | 3.0 | 4.0 | 0.00 | 0.00 | 0.00 | 53 | 1016.2 |
| 20260507001001 | 62 | 201 | 3.0 | 4.0 | 0.00 | 0.00 | 0.00 | 53 | 1016.4 |
| 20260507000457 | 63 | 86 | 2.0 | 3.0 | 0.00 | 0.00 | 0.00 | 53 | 1016.2 |
| 20260506235952 | 63 | 359 | 4.0 | 6.0 | 0.00 | 0.00 | 0.00 | 51 | 1016.2 |
| 20260506235450 | 62 | 64 | 1.0 | 1.0 | 0.00 | 0.00 | 0.00 | 53 | 1016.1 |
| 20260506234946 | 62 | 104 | 1.0 | 4.0 | 0.00 | 0.00 | 0.00 | 53 | 1015.9 |
| 20260506234443 | 62 | 131 | 4.0 | 8.0 | 0.00 | 0.00 | 0.00 | 51 | 1016.0 |
| 20260506233941 | 63 | 75 | 5.0 | 7.0 | 0.00 | 0.00 | 0.00 | 51 | 1016.0 |
| 20260506233437 | 63 | 122 | 3.0 | 4.0 | 0.00 | 0.00 | 0.00 | 51 | 1016.0 |
| 20260506232934 | 63 | 110 | 6.0 | 8.0 | 0.00 | 0.00 | 0.00 | 51 | 1015.8 |
| 20260506232430 | 63 | 56 | 4.0 | 8.0 | 0.00 | 0.00 | 0.00 | 51 | 1015.8 |
| 20260506231926 | 64 | 211 | 3.0 | 6.0 | 0.00 | 0.00 | 0.00 | 51 | 1015.8 |
| 20260506231423 | 63 | 211 | 1.0 | 3.0 | 0.00 | 0.00 | 0.00 | 51 | 1015.9 |
| 20260506230921 | 62 | 225 | 1.0 | 1.0 | 0.00 | 0.00 | 0.00 | 53 | 1015.7 |
| 20260506230417 | 63 | 159 | 3.0 | 4.0 | 0.00 | 0.00 | 0.00 | 50 | 1015.7 |
| 20260506225914 | 64 | 108 | 4.0 | 6.0 | 0.00 | 0.00 | 0.00 | 51 | 1015.5 |
| 20260506225411 | 63 | 239 | 1.0 | 1.0 | 0.00 | 0.00 | 0.00 | 50 | 1015.7 |
| 20260506224908 | 64 | 54 | 4.0 | 7.0 | 0.00 | 0.00 | 0.00 | 50 | 1015.8 |
| 20260506224405 | 64 | 350 | 3.0 | 4.0 | 0.00 | 0.00 | 0.00 | 49 | 1015.4 |
| 20260506223901 | 64 | 207 | 3.0 | 6.0 | 0.00 | 0.00 | 0.00 | 50 | 1015.3 |
| 20260506223357 | 64 | 230 | 1.0 | 1.0 | 0.00 | 0.00 | 0.00 | 50 | 1015.4 |
| 20260506222854 | 64 | 40 | 6.0 | 9.0 | 0.00 | 0.00 | 0.00 | 49 | 1015.1 |
| 20260506222350 | 64 | 49 | 2.0 | 7.0 | 0.00 | 0.00 | 0.00 | 51 | 1015.1 |
| 20260506221848 | 65 | 51 | 4.0 | 7.0 | 0.00 | 0.00 | 0.00 | 48 | 1015.2 |
| 20260506221345 | 64 | 212 | 3.0 | 4.0 | 0.00 | 0.00 | 0.00 | 50 | 1015.1 |
| 20260506220842 | 64 | 91 | 5.0 | 7.0 | 0.00 | 0.00 | 0.00 | 51 | 1015.1 |
| 20260506220337 | 64 | 276 | 2.0 | 2.0 | 0.00 | 0.00 | 0.00 | 50 | 1015.1 |
| 20260506215834 | 63 | 231 | 3.0 | 4.0 | 0.00 | 0.00 | 0.00 | 52 | 1015.2 |
| 20260506215330 | 63 | 40 | 4.0 | 7.0 | 0.00 | 0.00 | 0.00 | 50 | 1015.2 |
| 20260506214821 | 64 | 93 | 2.0 | 3.0 | 0.00 | 0.00 | 0.00 | 51 | 1015.2 |
| 20260506214317 | 64 | 225 | 2.0 | 2.0 | 0.00 | 0.00 | 0.00 | 53 | 1015.3 |
| 20260506213816 | 64 | 20 | 3.0 | 4.0 | 0.00 | 0.00 | 0.00 | 51 | 1015.3 |
| 20260506213313 | 62 | 205 | 2.0 | 3.0 | 0.00 | 0.00 | 0.00 | 56 | 1015.7 |
| 20260506212810 | 61 | 340 | 6.0 | 8.0 | 0.00 | 0.00 | 0.00 | 55 | 1015.7 |
| 20260506212306 | 62 | 141 | 2.0 | 3.0 | 0.00 | 0.00 | 0.00 | 56 | 1015.6 |
| 20260506211800 | 64 | 153 | 3.0 | 4.0 | 0.00 | 0.00 | 0.00 | 54 | 1015.7 |
| 20260506211256 | 61 | 244 | 2.0 | 3.0 | 0.00 | 0.00 | 0.00 | 56 | 1015.6 |
| 20260506210754 | 61 | 198 | 1.0 | 1.0 | 0.00 | 0.00 | 0.00 | 56 | 1015.7 |
| 20260506210250 | 61 | 56 | 4.0 | 6.0 | 0.00 | 0.00 | 0.00 | 57 | 1015.8 |
| 20260506205748 | 61 | 189 | 4.0 | 6.0 | 0.00 | 0.00 | 0.00 | 55 | 1015.6 |
| 20260506205243 | 62 | 107 | 3.0 | 4.0 | 0.00 | 0.00 | 0.00 | 57 | 1015.9 |
| 20260506204740 | 61 | 75 | 7.0 | 8.0 | 0.00 | 0.00 | 0.00 | 57 | 1015.8 |
| 20260506204238 | 60 | 110 | 5.0 | 6.0 | 0.00 | 0.00 | 0.00 | 57 | 1015.7 |
| 20260506203736 | 60 | 207 | 0.0 | 1.0 | 0.00 | 0.00 | 0.00 | 58 | 1015.9 |
| 20260506203232 | 60 | 59 | 4.0 | 4.0 | 0.00 | 0.00 | 0.00 | 57 | 1015.9 |
| 20260506202730 | 61 | 181 | 3.0 | 3.0 | 0.00 | 0.00 | 0.00 | 57 | 1016.0 |
| 20260506202226 | 62 | 324 | 4.0 | 6.0 | 0.00 | 0.00 | 0.00 | 55 | 1015.8 |
| 20260506201723 | 62 | 226 | 5.0 | 7.0 | 0.00 | 0.00 | 0.00 | 56 | 1015.8 |
| 20260506201220 | 61 | 335 | 3.0 | 4.0 | 0.00 | 0.00 | 0.00 | 57 | 1016.0 |
| 20260506200718 | 60 | 28 | 4.0 | 4.0 | 0.00 | 0.00 | 0.00 | 57 | 1016.2 |
| 20260506200214 | 61 | 226 | 4.0 | 9.0 | 0.00 | 0.00 | 0.00 | 58 | 1016.0 |
| 20260506195710 | 62 | 111 | 2.0 | 3.0 | 0.00 | 0.00 | 0.00 | 57 | 1016.1 |
| 20260506195207 | 61 | 246 | 3.0 | 4.0 | 0.00 | 0.00 | 0.00 | 57 | 1016.1 |
| 20260506194659 | 61 | 345 | 3.0 | 3.0 | 0.00 | 0.00 | 0.00 | 57 | 1015.9 |
| 20260506194155 | 60 | 96 | 2.0 | 4.0 | 0.00 | 0.00 | 0.00 | 59 | 1016.0 |
| 20260506193653 | 60 | 334 | 4.0 | 6.0 | 0.00 | 0.00 | 0.00 | 57 | 1016.1 |
| 20260506193149 | 60 | 38 | 5.0 | 6.0 | 0.00 | 0.00 | 0.00 | 57 | 1016.0 |
| 20260506192645 | 61 | 38 | 9.0 | 11.0 | 0.00 | 0.00 | 0.00 | 56 | 1016.2 |
| 20260506192141 | 60 | 89 | 1.0 | 2.0 | 0.00 | 0.00 | 0.00 | 59 | 1016.3 |
| 20260506191634 | 60 | 244 | 2.0 | 2.0 | 0.00 | 0.00 | 0.00 | 58 | 1016.5 |
| 20260506191130 | 60 | 113 | 5.0 | 7.0 | 0.00 | 0.00 | 0.00 | 58 | 1016.4 |
| 20260506190627 | 60 | 66 | 6.0 | 9.0 | 0.00 | 0.00 | 0.00 | 57 | 1016.4 |
| 20260506190124 | 61 | 231 | 3.0 | 3.0 | 0.00 | 0.00 | 0.00 | 57 | 1016.4 |
| 20260506185621 | 62 | 188 | 2.0 | 3.0 | 0.00 | 0.00 | 0.00 | 56 | 1016.3 |
| 20260506185117 | 60 | 188 | 2.0 | 2.0 | 0.00 | 0.00 | 0.00 | 58 | 1016.5 |
| 20260506184614 | 61 | 119 | 4.0 | 6.0 | 0.00 | 0.00 | 0.00 | 55 | 1016.4 |
| 20260506184112 | 60 | 242 | 3.0 | 7.0 | 0.00 | 0.00 | 0.00 | 57 | 1016.5 |
| 20260506183608 | 60 | 188 | 2.0 | 2.0 | 0.00 | 0.00 | 0.00 | 56 | 1016.4 |
| 20260506183104 | 60 | 191 | 3.0 | 6.0 | 0.00 | 0.00 | 0.00 | 56 | 1016.7 |
| 20260506182602 | 60 | 301 | 2.0 | 3.0 | 0.00 | 0.00 | 0.00 | 56 | 1016.8 |
| 20260506182059 | 62 | 225 | 3.0 | 3.0 | 0.00 | 0.00 | 0.00 | 56 | 1016.5 |
| 20260506181557 | 62 | 73 | 4.0 | 7.0 | 0.00 | 0.00 | 0.00 | 54 | 1016.7 |
| 20260506181053 | 60 | 47 | 3.0 | 4.0 | 0.00 | 0.00 | 0.00 | 57 | 1016.8 |
| 20260506180550 | 60 | 127 | 4.0 | 4.0 | 0.00 | 0.00 | 0.00 | 58 | 1016.7 |
| 20260506180047 | 60 | 178 | 4.0 | 4.0 | 0.00 | 0.00 | 0.00 | 58 | 1016.9 |
| 20260506175543 | 60 | 55 | 5.0 | 11.0 | 0.00 | 0.00 | 0.00 | 58 | 1017.3 |
| 20260506175039 | 60 | 146 | 3.0 | 3.0 | 0.00 | 0.00 | 0.00 | 56 | 1017.2 |
| 20260506174538 | 60 | 82 | 6.0 | 10.0 | 0.00 | 0.00 | 0.00 | 56 | 1017.3 |
| 20260506174033 | 60 | 47 | 5.0 | 7.0 | 0.00 | 0.00 | 0.00 | 56 | 1017.0 |
| 20260506173531 | 61 | 181 | 7.0 | 11.0 | 0.00 | 0.00 | 0.00 | 54 | 1017.3 |
| 20260506173023 | 60 | 81 | 6.0 | 10.0 | 0.00 | 0.00 | 0.00 | 54 | 1016.9 |
| 20260506172520 | 60 | 199 | 2.0 | 4.0 | 0.00 | 0.00 | 0.00 | 55 | 1016.9 |
| 20260506172016 | 60 | 114 | 4.0 | 6.0 | 0.00 | 0.00 | 0.00 | 56 | 1017.2 |
| 20260506171513 | 60 | 133 | 5.0 | 9.0 | 0.00 | 0.00 | 0.00 | 55 | 1016.9 |
| 20260506171010 | 60 | 128 | 7.0 | 13.0 | 0.00 | 0.00 | 0.00 | 55 | 1016.9 |
| 20260506170507 | 58 | 203 | 6.0 | 11.0 | 0.00 | 0.00 | 0.00 | 57 | 1016.9 |
| 20260506170000 | 58 | 58 | 7.0 | 9.0 | 0.00 | 0.00 | 0.00 | 58 | 1016.9 |
| 20260506165458 | 59 | 50 | 10.0 | 14.0 | 0.00 | 0.00 | 0.00 | 57 | 1017.0 |
| 20260506164948 | 59 | 155 | 5.0 | 8.0 | 0.00 | 0.00 | 0.00 | 58 | 1017.5 |
| 20260506164445 | 58 | 215 | 4.0 | 7.0 | 0.00 | 0.00 | 0.00 | 60 | 1017.2 |
| 20260506163943 | 57 | 40 | 6.0 | 9.0 | 0.00 | 0.00 | 0.00 | 59 | 1017.4 |
| 20260506163438 | 57 | 66 | 9.0 | 10.0 | 0.00 | 0.00 | 0.00 | 60 | 1017.6 |
| 20260506162932 | 58 | 263 | 6.0 | 9.0 | 0.00 | 0.00 | 0.00 | 60 | 1017.5 |
| 20260506162430 | 58 | 94 | 8.0 | 11.0 | 0.00 | 0.00 | 0.00 | 58 | 1017.6 |
| 20260506161922 | 58 | 144 | 9.0 | 14.0 | 0.00 | 0.00 | 0.00 | 61 | 1017.4 |
| 20260506161420 | 58 | 111 | 6.0 | 8.0 | 0.00 | 0.00 | 0.00 | 61 | 1017.7 |
| 20260506160917 | 55 | 88 | 5.0 | 7.0 | 0.00 | 0.00 | 0.00 | 63 | 1017.6 |
| 20260506160414 | 56 | 86 | 9.0 | 11.0 | 0.00 | 0.00 | 0.00 | 63 | 1017.3 |
| 20260506155912 | 55 | 128 | 9.0 | 13.0 | 0.00 | 0.00 | 0.00 | 64 | 1017.2 |
| 20260506155408 | 54 | 78 | 3.0 | 4.0 | 0.00 | 0.00 | 0.00 | 66 | 1017.5 |
| 20260506153525 | 53 | 115 | 5.0 | 8.0 | 0.00 | 0.00 | 0.00 | 71 | 1016.9 |
| 20260506153022 | 53 | 91 | 7.0 | 10.0 | 0.00 | 0.00 | 0.00 | 71 | 1017.0 |
| 20260506152519 | 52 | 77 | 8.0 | 9.0 | 0.00 | 0.00 | 0.00 | 72 | 1017.2 |
| 20260506152017 | 52 | 86 | 11.0 | 14.0 | 0.00 | 0.00 | 0.00 | 73 | 1016.9 |
| 20260506151514 | 53 | 342 | 6.0 | 8.0 | 0.00 | 0.00 | 0.00 | 73 | 1017.2 |
| 20260506151012 | 52 | 154 | 3.0 | 4.0 | 0.00 | 0.00 | 0.00 | 74 | 1017.2 |
| 20260506150508 | 51 | 202 | 1.0 | 2.0 | 0.00 | 0.00 | 0.00 | 77 | 1017.2 |
| 20260506150005 | 51 | 78 | 5.0 | 6.0 | 0.00 | 0.00 | 0.00 | 77 | 1016.9 |
| 20260506145501 | 51 | 236 | 5.0 | 8.0 | 0.00 | 0.00 | 0.00 | 77 | 1016.6 |
| 20260506144959 | 51 | 133 | 2.0 | 3.0 | 0.00 | 0.00 | 0.00 | 78 | 1016.7 |
| 20260506144455 | 51 | 52 | 4.0 | 6.0 | 0.00 | 0.00 | 0.00 | 78 | 1016.7 |
| 20260506143953 | 50 | 241 | 2.0 | 3.0 | 0.00 | 0.00 | 0.00 | 79 | 1016.3 |
| 20260506143450 | 50 | 59 | 3.0 | 7.0 | 0.00 | 0.00 | 0.00 | 80 | 1016.2 |
| 20260506142949 | 50 | 108 | 6.0 | 10.0 | 0.00 | 0.00 | 0.00 | 80 | 1016.3 |
| 20260506142446 | 50 | 103 | 6.0 | 10.0 | 0.00 | 0.00 | 0.00 | 80 | 1016.4 |
| 20260506141944 | 50 | 236 | 3.0 | 4.0 | 0.00 | 0.00 | 0.00 | 81 | 1016.3 |
| 20260506141442 | 49 | 321 | 3.0 | 3.0 | 0.00 | 0.00 | 0.00 | 81 | 1016.2 |
| 20260506140940 | 49 | 76 | 6.0 | 7.0 | 0.00 | 0.00 | 0.00 | 81 | 1016.3 |
| 20260506140436 | 49 | 274 | 2.0 | 3.0 | 0.00 | 0.00 | 0.00 | 82 | 1016.6 |
| 20260506135933 | 49 | 64 | 5.0 | 7.0 | 0.00 | 0.00 | 0.00 | 81 | 1016.4 |
| 20260506135431 | 49 | 58 | 6.0 | 9.0 | 0.00 | 0.00 | 0.00 | 82 | 1016.8 |
| 20260506134927 | 48 | 203 | 4.0 | 6.0 | 0.00 | 0.00 | 0.00 | 83 | 1016.7 |
| 20260506134423 | 48 | 329 | 9.0 | 11.0 | 0.00 | 0.00 | 0.00 | 83 | 1016.5 |
| 20260506133920 | 48 | 29 | 4.0 | 8.0 | 0.00 | 0.00 | 0.00 | 84 | 1016.8 |
| 20260506133417 | 48 | 29 | 7.0 | 11.0 | 0.00 | 0.00 | 0.00 | 83 | 1016.5 |
| 20260506132914 | 48 | 324 | 7.0 | 10.0 | 0.00 | 0.00 | 0.00 | 83 | 1016.4 |
| 20260506132411 | 48 | 210 | 1.0 | 2.0 | 0.00 | 0.00 | 0.00 | 84 | 1016.5 |
| 20260506131908 | 48 | 167 | 2.0 | 3.0 | 0.00 | 0.00 | 0.00 | 85 | 1016.4 |
| 20260506131404 | 48 | 298 | 2.0 | 3.0 | 0.00 | 0.00 | 0.00 | 85 | 1016.2 |
| 20260506130902 | 48 | 72 | 5.0 | 8.0 | 0.00 | 0.00 | 0.00 | 84 | 1016.4 |
| 20260506130358 | 48 | 228 | 2.0 | 2.0 | 0.00 | 0.00 | 0.00 | 85 | 1016.1 |
| 20260506125856 | 48 | 261 | 4.0 | 7.0 | 0.00 | 0.00 | 0.00 | 85 | 1016.0 |
| 20260506125354 | 47 | 88 | 4.0 | 4.0 | 0.00 | 0.00 | 0.00 | 86 | 1016.4 |
| 20260506124852 | 47 | 82 | 6.0 | 10.0 | 0.00 | 0.00 | 0.00 | 86 | 1016.4 |
| 20260506124349 | 47 | 270 | 5.0 | 7.0 | 0.00 | 0.00 | 0.00 | 86 | 1016.1 |
| 20260506123847 | 47 | 324 | 4.0 | 7.0 | 0.00 | 0.00 | 0.00 | 87 | 1016.1 |
| 20260506123345 | 47 | 247 | 2.0 | 2.0 | 0.00 | 0.00 | 0.00 | 87 | 1016.0 |
| 20260506122842 | 47 | 225 | 1.0 | 2.0 | 0.00 | 0.00 | 0.00 | 87 | 1015.8 |
| 20260506122338 | 47 | 152 | 7.0 | 10.0 | 0.00 | 0.00 | 0.00 | 87 | 1015.7 |
| 20260506121837 | 47 | 25 | 4.0 | 6.0 | 0.00 | 0.00 | 0.00 | 87 | 1015.8 |
| 20260506121333 | 47 | 80 | 5.0 | 7.0 | 0.00 | 0.00 | 0.00 | 87 | 1015.7 |
| 20260506120831 | 47 | 231 | 2.0 | 3.0 | 0.00 | 0.00 | 0.00 | 86 | 1015.4 |
| 20260506120329 | 47 | 225 | 2.0 | 4.0 | 0.00 | 0.00 | 0.00 | 86 | 1015.4 |
| 20260506115825 | 47 | 9 | 5.0 | 7.0 | 0.00 | 0.00 | 0.00 | 86 | 1015.6 |
| 20260506115324 | 47 | 271 | 3.0 | 4.0 | 0.00 | 0.00 | 0.00 | 86 | 1015.5 |
| 20260506114821 | 47 | 346 | 2.0 | 3.0 | 0.00 | 0.00 | 0.00 | 86 | 1015.5 |
| 20260506114319 | 46 | 21 | 2.0 | 3.0 | 0.00 | 0.00 | 0.00 | 86 | 1015.4 |
| 20260506113817 | 46 | 222 | 2.0 | 4.0 | 0.00 | 0.00 | 0.00 | 86 | 1015.1 |
| 20260506113315 | 46 | 71 | 3.0 | 4.0 | 0.00 | 0.00 | 0.00 | 86 | 1015.0 |
| 20260506112811 | 47 | 266 | 3.0 | 4.0 | 0.00 | 0.00 | 0.00 | 85 | 1014.9 |
| 20260506112309 | 47 | 345 | 3.0 | 4.0 | 0.00 | 0.00 | 0.00 | 85 | 1014.8 |
| 20260506111806 | 47 | 80 | 4.0 | 4.0 | 0.00 | 0.00 | 0.00 | 85 | 1014.8 |
| 20260506111304 | 47 | 59 | 6.0 | 7.0 | 0.00 | 0.00 | 0.00 | 85 | 1014.7 |
| 20260506110801 | 47 | 44 | 3.0 | 3.0 | 0.00 | 0.00 | 0.00 | 85 | 1014.8 |
| 20260506110258 | 47 | 202 | 1.0 | 2.0 | 0.00 | 0.00 | 0.00 | 85 | 1014.9 |
| 20260506105754 | 47 | 67 | 5.0 | 7.0 | 0.00 | 0.00 | 0.00 | 85 | 1015.2 |
| 20260506105251 | 47 | 345 | 2.0 | 4.0 | 0.00 | 0.00 | 0.00 | 84 | 1015.5 |
| 20260506104749 | 47 | 83 | 2.0 | 3.0 | 0.00 | 0.00 | 0.00 | 84 | 1015.3 |
| 20260506104246 | 48 | 308 | 4.0 | 7.0 | 0.00 | 0.00 | 0.00 | 84 | 1015.3 |
| 20260506103744 | 48 | 353 | 4.0 | 4.0 | 0.00 | 0.00 | 0.00 | 84 | 1015.4 |
| 20260506103241 | 48 | 231 | 2.0 | 2.0 | 0.00 | 0.00 | 0.00 | 84 | 1015.3 |
| 20260506102738 | 48 | 51 | 3.0 | 4.0 | 0.00 | 0.00 | 0.00 | 84 | 1015.3 |
| 20260506102236 | 48 | 201 | 1.0 | 1.0 | 0.00 | 0.00 | 0.00 | 84 | 1015.0 |
| 20260506101733 | 48 | 225 | 2.0 | 2.0 | 0.00 | 0.00 | 0.00 | 84 | 1015.3 |
| 20260506101229 | 48 | 233 | 3.0 | 3.0 | 0.00 | 0.00 | 0.00 | 83 | 1015.5 |
| 20260506100727 | 48 | 230 | 0.0 | 1.0 | 0.00 | 0.00 | 0.00 | 84 | 1015.4 |
| 20260506100225 | 48 | 251 | 2.0 | 2.0 | 0.00 | 0.00 | 0.00 | 83 | 1015.2 |
| 20260506095724 | 48 | 231 | 1.0 | 2.0 | 0.00 | 0.00 | 0.00 | 83 | 1015.2 |
| 20260506095220 | 48 | 152 | 3.0 | 4.0 | 0.00 | 0.00 | 0.00 | 82 | 1015.4 |
| 20260506094717 | 48 | 148 | 4.0 | 7.0 | 0.00 | 0.00 | 0.00 | 82 | 1015.0 |
| 20260506094215 | 48 | 52 | 4.0 | 6.0 | 0.00 | 0.00 | 0.00 | 82 | 1014.7 |
| 20260506093714 | 48 | 227 | 1.0 | 2.0 | 0.00 | 0.00 | 0.00 | 82 | 1014.7 |
| 20260506093210 | 48 | 329 | 4.0 | 4.0 | 0.00 | 0.00 | 0.00 | 82 | 1014.4 |
| 20260506092708 | 48 | 237 | 2.0 | 2.0 | 0.00 | 0.00 | 0.00 | 82 | 1014.4 |
| 20260506092205 | 48 | 45 | 1.0 | 2.0 | 0.00 | 0.00 | 0.00 | 82 | 1014.2 |
| 20260506091703 | 48 | 337 | 3.0 | 3.0 | 0.00 | 0.00 | 0.00 | 81 | 1014.2 |
| 20260506091200 | 48 | 45 | 2.0 | 2.0 | 0.00 | 0.00 | 0.00 | 81 | 1014.5 |
| 20260506090658 | 48 | 230 | 3.0 | 3.0 | 0.00 | 0.00 | 0.00 | 81 | 1014.3 |
| 20260506090154 | 48 | 122 | 1.0 | 2.0 | 0.00 | 0.00 | 0.00 | 81 | 1013.9 |
| 20260506085651 | 48 | 225 | 2.0 | 3.0 | 0.00 | 0.00 | 0.00 | 80 | 1013.8 |
| 20260506085147 | 48 | 93 | 5.0 | 7.0 | 0.00 | 0.00 | 0.00 | 81 | 1014.2 |
| 20260506084644 | 48 | 342 | 2.0 | 2.0 | 0.00 | 0.00 | 0.00 | 80 | 1013.8 |
| 20260506084141 | 48 | 25 | 5.0 | 8.0 | 0.00 | 0.00 | 0.00 | 80 | 1013.9 |
| 20260506083638 | 48 | 22 | 4.0 | 6.0 | 0.00 | 0.00 | 0.00 | 80 | 1013.9 |
| 20260506083136 | 48 | 41 | 4.0 | 9.0 | 0.00 | 0.00 | 0.00 | 80 | 1013.7 |
| 20260506082632 | 48 | 81 | 6.0 | 7.0 | 0.00 | 0.00 | 0.00 | 80 | 1013.6 |
| 20260506082128 | 47 | 45 | 4.0 | 6.0 | 0.00 | 0.00 | 0.00 | 81 | 1013.3 |
| 20260506081626 | 47 | 216 | 3.0 | 4.0 | 0.00 | 0.00 | 0.00 | 81 | 1013.2 |
| 20260506081124 | 47 | 237 | 4.0 | 6.0 | 0.00 | 0.00 | 0.00 | 81 | 1013.0 |
| 20260506080621 | 47 | 40 | 3.0 | 4.0 | 0.00 | 0.00 | 0.00 | 81 | 1013.0 |
| 20260506080117 | 47 | 13 | 6.0 | 7.0 | 0.00 | 0.00 | 0.00 | 81 | 1012.9 |
| 20260506073101 | 48 | 129 | 2.0 | 3.0 | 0.00 | 0.00 | 0.00 | 81 | 1012.6 |
| 20260506072558 | 48 | 92 | 3.0 | 4.0 | 0.00 | 0.00 | 0.00 | 80 | 1012.7 |
| 20260506072056 | 48 | 31 | 3.0 | 4.0 | 0.00 | 0.00 | 0.00 | 80 | 1012.6 |
| 20260506071553 | 48 | 80 | 3.0 | 3.0 | 0.00 | 0.00 | 0.00 | 80 | 1012.5 |
| 20260506071051 | 48 | 305 | 4.0 | 6.0 | 0.00 | 0.00 | 0.00 | 79 | 1012.6 |
| 20260506070548 | 48 | 76 | 6.0 | 9.0 | 0.00 | 0.00 | 0.00 | 79 | 1012.5 |
| 20260506062022 | 48 | 238 | 2.0 | 2.0 | 0.00 | 0.00 | 0.00 | 77 | 1013.1 |
| 20260506061518 | 48 | 33 | 4.0 | 6.0 | 0.00 | 0.00 | 0.00 | 77 | 1012.8 |
| 20260506061016 | 48 | 203 | 2.0 | 2.0 | 0.00 | 0.00 | 0.00 | 77 | 1012.8 |
| 20260506060514 | 48 | 242 | 3.0 | 3.0 | 0.00 | 0.00 | 0.00 | 77 | 1012.7 |
| 20260506050943 | 48 | 16 | 5.0 | 8.0 | 0.00 | 0.00 | 0.00 | 79 | 1012.5 |
| 20260506050440 | 48 | 96 | 4.0 | 6.0 | 0.00 | 0.00 | 0.00 | 79 | 1012.4 |
| 20260506044930 | 48 | 136 | 5.0 | 7.0 | 0.00 | 0.00 | 0.00 | 80 | 1012.8 |
| 20260506044429 | 48 | 57 | 4.0 | 6.0 | 0.00 | 0.00 | 0.00 | 80 | 1012.8 |
| 20260506043925 | 48 | 111 | 2.0 | 3.0 | 0.00 | 0.00 | 0.00 | 82 | 1012.8 |
| 20260506043423 | 48 | 183 | 3.0 | 4.0 | 0.00 | 0.00 | 0.00 | 82 | 1012.7 |
| 20260506042920 | 48 | 229 | 2.0 | 3.0 | 0.00 | 0.00 | 0.00 | 82 | 1012.8 |
| 20260506042420 | 48 | 38 | 5.0 | 7.0 | 0.00 | 0.00 | 0.00 | 83 | 1012.6 |
| 20260506041918 | 48 | 145 | 2.0 | 2.0 | 0.00 | 0.00 | 0.00 | 83 | 1012.6 |
| 20260506041415 | 48 | 33 | 4.0 | 4.0 | 0.00 | 0.00 | 0.00 | 83 | 1012.6 |
| 20260506040912 | 48 | 81 | 5.0 | 7.0 | 0.00 | 0.00 | 0.00 | 83 | 1012.7 |
| 20260506040409 | 48 | 107 | 3.0 | 4.0 | 0.00 | 0.00 | 0.00 | 84 | 1012.8 |
| 20260506035905 | 48 | 30 | 3.0 | 7.0 | 0.00 | 0.00 | 0.00 | 84 | 1012.8 |
| 20260506035403 | 48 | 215 | 1.0 | 1.0 | 0.00 | 0.00 | 0.00 | 84 | 1012.7 |
| 20260506034859 | 48 | 341 | 3.0 | 6.0 | 0.00 | 0.00 | 0.00 | 85 | 1012.8 |
| 20260506034358 | 48 | 52 | 6.0 | 7.0 | 0.00 | 0.00 | 0.00 | 84 | 1012.6 |
| 20260506033854 | 48 | 66 | 3.0 | 6.0 | 0.00 | 0.00 | 0.00 | 85 | 1012.7 |
| 20260506033351 | 48 | 92 | 11.0 | 14.0 | 0.00 | 0.00 | 0.00 | 85 | 1012.2 |
| 20260506032848 | 48 | 252 | 5.0 | 8.0 | 0.00 | 0.00 | 0.00 | 85 | 1012.3 |
| 20260506032344 | 48 | 181 | 2.0 | 3.0 | 0.00 | 0.00 | 0.00 | 86 | 1012.0 |
| 20260506031841 | 48 | 199 | 3.0 | 4.0 | 0.00 | 0.00 | 0.00 | 86 | 1011.9 |
| 20260506031339 | 48 | 280 | 7.0 | 13.0 | 0.00 | 0.00 | 0.00 | 87 | 1011.6 |
| 20260506030836 | 48 | 37 | 6.0 | 8.0 | 0.00 | 0.00 | 0.00 | 87 | 1011.3 |
| 20260506030334 | 48 | 299 | 7.0 | 10.0 | 0.00 | 0.00 | 0.00 | 87 | 1011.7 |
| 20260506025831 | 48 | 77 | 4.0 | 7.0 | 0.00 | 0.00 | 0.00 | 88 | 1011.8 |
| 20260506025327 | 48 | 76 | 9.0 | 13.0 | 0.00 | 0.00 | 0.00 | 89 | 1011.8 |
| 20260506024824 | 48 | 60 | 4.0 | 6.0 | 0.00 | 0.00 | 0.00 | 90 | 1012.1 |
| 20260506024321 | 48 | 5 | 6.0 | 9.0 | 0.00 | 0.00 | 0.00 | 90 | 1011.7 |
| 20260506023817 | 48 | 52 | 7.0 | 8.0 | 0.00 | 0.00 | 0.00 | 90 | 1011.7 |
| 20260506023314 | 48 | 8 | 5.0 | 8.0 | 0.00 | 0.00 | 0.00 | 90 | 1011.8 |
| 20260506022811 | 48 | 231 | 2.0 | 2.0 | 0.00 | 0.00 | 0.00 | 89 | 1011.9 |
| 20260506022309 | 48 | 34 | 4.0 | 6.0 | 0.00 | 0.00 | 0.00 | 88 | 1011.8 |
| 20260506021807 | 48 | 72 | 3.0 | 4.0 | 0.00 | 0.00 | 0.00 | 87 | 1011.9 |
| 20260506021303 | 48 | 47 | 6.0 | 9.0 | 0.00 | 0.00 | 0.00 | 87 | 1011.6 |
| 20260506020800 | 48 | 166 | 4.0 | 7.0 | 0.00 | 0.00 | 0.00 | 87 | 1011.7 |
| 20260506020258 | 49 | 255 | 4.0 | 6.0 | 0.00 | 0.00 | 0.00 | 87 | 1011.7 |
| 20260506015755 | 49 | 120 | 5.0 | 8.0 | 0.00 | 0.00 | 0.00 | 86 | 1011.5 |
| 20260506015252 | 49 | 300 | 4.0 | 6.0 | 0.00 | 0.00 | 0.00 | 86 | 1011.4 |
| 20260506014749 | 49 | 315 | 4.0 | 6.0 | 0.00 | 0.00 | 0.00 | 86 | 1011.4 |
| 20260506014246 | 49 | 43 | 4.0 | 7.0 | 0.00 | 0.00 | 0.00 | 85 | 1011.2 |
| 20260506013743 | 49 | 135 | 4.0 | 7.0 | 0.00 | 0.00 | 0.00 | 85 | 1010.9 |
| 20260506013240 | 49 | 34 | 3.0 | 4.0 | 0.00 | 0.00 | 0.00 | 86 | 1011.0 |